Regional Weather Roundup
Issued by NWS

Home | Current Version | Previous Version | Graphics & Text | Print | Product List | Glossary On
Versions: 1 2 3 4 5 6 7 8 9 10 11 12 13 14 15 16 17 18 19 20 21 22 23 24 25 26 27 28 29 30 31 32 33 34 35 36 37 38 39 40 41 42 43 44 45 46 47 48 49 50
000
ASUS45 KPSR 030610
RWRAZ

ARIZONA REGIONAL HOURLY WEATHER ROUNDUP
NATIONAL WEATHER SERVICE PHOENIX AZ
1100 PM MST TUE SEP 02 2014

NOTE: FAIR INDICATES FEW OR NO CLOUDS BELOW 12,000 FEET WITH NO
SIGNIFICANT WEATHER AND/OR OBSTRUCTIONS TO VISIBILITY.

AZZ001>003-036-030700-
NORTHWEST ARIZONA

CITY           SKY/WX    TMP DP  RH WIND       PRES   REMARKS
BULLHEAD CITY  CLEAR     93  39  15 E6        29.66S
KINGMAN        CLEAR     77  34  21 S10       29.89S
6HR MIN TEMP:  75; 6HR MAX TEMP:  97;

$$

AZZ004>008-015-016-018-030700-
NORTH CENTRAL ARIZONA

CITY           SKY/WX    TMP DP  RH WIND       PRES   REMARKS
GRAND CANYON     N/A    N/A N/A N/A MISG        N/A
WILLIAMS         N/A     55  37  50 SE7       30.24S
PRESCOTT       CLEAR     67  36  31 S9        30.05S
6HR MIN TEMP:  66; 6HR MAX TEMP:  86;

FLAGSTAFF      CLEAR     51  35  54 CALM      30.21S
6HR MIN TEMP:  51; 6HR MAX TEMP:  78;

PAYSON         CLEAR     70  37  30 CALM      30.09S
PAGE           CLEAR     82  30  15 SW3       29.92R
6HR MIN TEMP:  82; 6HR MAX TEMP:  97;

$$

AZZ009>014-017-030700-
NORTHEAST ARIZONA

CITY           SKY/WX    TMP DP  RH WIND       PRES   REMARKS
WINSLOW        CLEAR     67  40  37 SW6       30.04S
6HR MIN TEMP:  67; 6HR MAX TEMP:  92;

SAINT JOHNS    CLEAR     70  39  32 W9        30.09R
6HR MIN TEMP:  68; 6HR MAX TEMP:  90;

WINDOW ROCK    CLEAR     58  22  24 CALM      30.17S
6HR MIN TEMP:  56; 6HR MAX TEMP:  87;

SHOW LOW       CLEAR     63  36  36 S8        30.19S
$$

AZZ023-030700-
GREATER PHOENIX AREA

CITY           SKY/WX    TMP DP  RH WIND       PRES   REMARKS
PHOENIX        CLEAR     96  45  17 W6        29.71R
6HR MIN TEMP:  93; 6HR MAX TEMP: 107;

BUCKEYE          N/A     86  48  26 E5        29.73R
LUKE AFB       NOT AVBL
6HR MIN TEMP:  89; 6HR MAX TEMP: 105;

DEER VALLEY    CLEAR     89  43  20 CALM      29.74R
6HR MIN TEMP:  88; 6HR MAX TEMP: 104;

SCOTTSDALE     CLEAR     89  51  27 W6        29.75S
6HR MIN TEMP:  89; 6HR MAX TEMP: 105;

MESA-GATEWAY   CLEAR     86  43  22 SW8       29.76R
$$

AZZ027-028-030700-
SOUTHWEST MARICOPA COUNTY AND PINAL COUNTY

CITY           SKY/WX    TMP DP  RH WIND       PRES   REMARKS
CASA GRANDE    CLEAR     90  41  18 NW6       29.77S
6HR MIN TEMP:  90; 6HR MAX TEMP: 106;

GILA BEND      CLEAR     95  46  18 VRB6      29.72S
$$

AZZ503-504-507>509-030700-
SOUTHEAST ARIZONA

CITY           SKY/WX    TMP DP  RH WIND       PRES   REMARKS
TUCSON         CLEAR     87  45  23 SW6       29.88R
6HR MIN TEMP:  87; 6HR MAX TEMP: 103;

DAVIS-MONTHAN  CLEAR     83  44  25 W5        29.87S
6HR MIN TEMP:  83; 6HR MAX TEMP: 100;

NOGALES        CLEAR     73  51  46 E7        29.98S
6HR MIN TEMP:  72; 6HR MAX TEMP:  95;

SIERRA VISTA   PTCLDY    79  45  29 SW9       30.05S
DOUGLAS        PTCLDY    76  56  49 S13       30.00R
6HR MIN TEMP:  69; 6HR MAX TEMP:  95;

SAFFORD        CLEAR     81  40  23 NW10      29.88S
6HR MIN TEMP:  81; 6HR MAX TEMP: 100;

$$

AZZ020-021-025-026-031-030700-
SOUTHWEST ARIZONA

CITY           SKY/WX    TMP DP  RH WIND       PRES   REMARKS
YUMA           CLEAR     90  48  23 S14       29.66R
6HR MIN TEMP:  90; 6HR MAX TEMP: 109;

$$

CAZ031-033-041-043-047-048-061-030700-
SOUTHERN CALIFORNIA

CITY           SKY/WX    TMP DP  RH WIND       PRES   REMARKS
DOWNTOWN L.A.  CLOUDY    68  63  84 CALM      29.80S
6HR MIN TEMP:  68; 6HR MAX TEMP:  79;

L.A. AIRPORT   MOCLDY    69  63  81 W7        29.81S
6HR MIN TEMP:  68; 6HR MAX TEMP:  74;

SAN DIEGO      CLOUDY    72  63  73 S7        29.84R
6HR MIN TEMP:  72; 6HR MAX TEMP:  76;

BURBANK        CLEAR     69  62  78 E6        29.81S
6HR MIN TEMP:  69; 6HR MAX TEMP:  83;

ONTARIO        CLEAR     71  62  73 SW7       29.82R
6HR MIN TEMP:  71; 6HR MAX TEMP:  89;

RIVERSIDE      CLEAR     72  63  73 W5        29.82S
6HR MIN TEMP:  72; 6HR MAX TEMP:  89;

PALM SPRINGS   CLEAR     91  40  16 W8        29.67S
6HR MIN TEMP:  91; 6HR MAX TEMP: 107;

EL CENTRO NAS  CLEAR     93  44  18 W20       29.63R
6HR MIN TEMP:  92; 6HR MAX TEMP: 109;

IMPERIAL       CLEAR     91  47  21 W14       29.62S
6HR MIN TEMP:  89; 6HR MAX TEMP: 109;

BLYTHE         CLEAR     92  54  27 S12       29.65R
6HR MIN TEMP:  91; 6HR MAX TEMP: 110;

NEEDLES        CLEAR     96  35  11 W12       29.66S
6HR MIN TEMP:  96; 6HR MAX TEMP: 109;

$$

NVZ020-UTZ003-030700-
SOUTHERN NEVADA-UTAH

CITY           SKY/WX    TMP DP  RH WIND       PRES   REMARKS
LAS VEGAS      CLEAR     92  34  13 S12       29.71S
6HR MIN TEMP:  92; 6HR MAX TEMP: 105;

SALT LAKE CITY PTCLDY    70  41  34 SE10      29.79S
6HR MIN TEMP:  70; 6HR MAX TEMP:  87;

$$

NMZ009-TXZ055-030700-
NEW MEXICO-WEST TEXAS

CITY           SKY/WX    TMP DP  RH WIND       PRES   REMARKS
ALBUQUERQUE    PTCLDY    74  40  29 SE7       30.04R
6HR MIN TEMP:  74; 6HR MAX TEMP:  94;

EL PASO        CLEAR     77  42  28 E7        29.92S
6HR MIN TEMP:  77; 6HR MAX TEMP:  99;

$$


........................KEY........................
SKY/WX - SKY CONDITION/WEATHER
TMP    - TEMPERATURE IN FAHRENHEIT
DP     - DEW POINT IN FAHRENHEIT
RH     - RELATIVE HUMIDITY IN PERCENT
WIND   - DIRECTION AND SPEED IN MILES PER HOUR (MPH)
VRB    - VARIABLE WIND DIRECTION
PRES   - MEAN SEA LEVEL PRESSURE IN INCHES OF MERCURY
         F - FALLING PRESSURE   R - RISING PRESSURE
         S - STEADY PRESSURE
VSB    - VISIBILITY IN MILES
HX     - HEAT INDEX IN FAHRENHEIT
WCI    - WIND CHILL INDEX IN FAHRENHEIT
TC     - TEMPERATURE IN CELSIUS WHICH IS ALSO KNOWN AS
         TEMPERATURE IN CENTIGRADE
AFB    - AIR FORCE BASE
         LUKE AFB IS LUKE AIR FORCE BASE
         DAVIS-MONTHAN IS DAVIS-MONTHAN AIR FORCE BASE
NAS    - NAVAL AIR STATION
         EL CENTRO NAS IS EL CENTRO NAVAL AIR STATION
N/A    - NOT AVAILABLE



USA.gov is the U.S. government's official web portal to all federal, state and local government web resources and services.